Location: Recife
(8.0585°S, 34.8848°W)
Time: 11:47:48
(UTC-03:00)

Vanguard 2 Rocket - Pass Details

Date: 20 April 2026
Orbit: 553 x 3286 km, 32.9° (Epoch: 7 May)

Event Time Altitude Azimuth Distance (km) Brightness Sun altitude
Rises 01:48:58 0° 325° (NW) 2,702 - -52.8°
Reaches altitude 10° 01:51:12 10° 337° (NNW) 1,851 - -52.3°
Maximum altitude 01:54:48 30° 40° (NE) 1,143 - -51.4°
Drops below altitude 10° 01:59:25 10° 101° (ESE) 2,418 - -50.2°
Exits shadow 02:00:31 - 106° (ESE) 2,837 9.9 -50.0°
Sets 02:02:47 0° 111° (ESE) 3,718 10.6 -49.4°
